User: anonymous   Login
Location: Fort Wayne
(41.1310°N, 85.1290°W)
Time: 03:56:19
(UTC-04:00)
Language:

Meteor 2-10 Rocket - Orbit

View from above orbital plane
View from above orbital plane
View from above satellite
View from above satellite

Ground track
Ground track

The orbit data is extracted from the following two-line orbital elements,

1 14453U 83109B   15108.35635329  .00000202  00000-0  76940-4 0  9993
2 14453 081.1683 181.8308 0104971 190.7992 169.0934 14.24587198634929
Epoch (UTC): 18 April 2015 08:33:08
Eccentricity: 0.0104971
inclination: 81.1683°
perigee height: 734 km
apogee height: 885 km
right ascension of ascending node: 181.8308°
argument of perigee: 190.7992°
revolutions per day: 14.24587198
mean anomaly at epoch: 169.0934°
orbit number at epoch: 63492

The dashed part of the orbit path shows where the satellite is in the earth's shadow,  

DLR